This demonstration page uses our WeatherBlox Daily Observations layout. Learn more.

Left ArrowRight Arrow

Hourly Observations for January 23, 2022

Temp ( °F °C ) Dew Point ( °F °C ) Humidity (%) Winds ( mph kmh ) Pressure ( in mb ) Visibility ( mi km ) Precip ( " mm )
12:53 am 00:53 Cloudy 39 3.9 15 -9.4 38 38 Calm 30.28 1025 10 16 0.00 0.00
1:53 am 01:53 Mostly Clear 36 2.2 14 -10 40 40 Calm 30.27 1025 10 16 0.00 0.00
2:11 am 02:11 Mostly Cloudy 35 1.7 14 -10 42 42 N 5 7 30.37 1028 10 16 0.00 0.00
2:34 am 02:34 Partly Cloudy 32 0 13 -10.6 45 45 N 6 9 30.40 1029 10 16 0.00 0.00
2:53 am 02:53 Mostly Clear 31 -0.6 13 -10.6 47 47 N 7 11 30.29 1026 10 16 0.00 0.00
3:53 am 03:53 Clear 29 -1.7 12 -11.1 49 49 N 7 11 30.29 1026 10 16 0.00 0.00
4:53 am 04:53 Mostly Clear 29 -1.7 13 -10.6 51 51 N 6 9 30.27 1025 10 16 0.00 0.00
5:53 am 05:53 Mostly Cloudy 30 -1.1 14 -10 51 51 Calm 30.27 1025 10 16 0.00 0.00
6:53 am 06:53 Cloudy 33 0.6 15 -9.4 47 47 Calm 30.27 1025 10 16 0.00 0.00
7:53 am 07:53 Cloudy 35 1.7 15 -9.4 44 44 NNW 3 6 30.27 1025 10 16 0.00 0.00
8:53 am 08:53 Cloudy 38 3.3 16 -8.9 41 41 Calm 30.27 1025 10 16 0.00 0.00
9:53 am 09:53 Cloudy 39 3.9 16 -8.9 39 39 SSW 3 6 30.27 1025 10 16 0.00 0.00
10:53 am 10:53 Cloudy 42 5.6 21 -6.1 43 43 Calm 30.26 1025 10 16 0.00 0.00
11:22 am 11:22 Cloudy 43 6.1 24 -4.4 47 47 W 5 7 30.31 1026 10 16 0.00 0.00
11:53 am 11:53 Cloudy 44 6.7 26 -3.3 49 49 Calm 30.23 1024 10 16 0.00 0.00
12:53 pm 12:53 Sunny 47 8.3 28 -2.2 48 48 ENE 7 11 30.18 1022 10 16 0.00 0.00
1:53 pm 13:53 Sunny 48 8.9 28 -2.2 46 46 Calm 30.12 1020 10 16 0.00 0.00
2:53 pm 14:53 Sunny 49 9.4 29 -1.7 46 46 SSW 6 9 30.09 1019 10 16 0.00 0.00
3:53 pm 15:53 Sunny 51 10.6 29 -1.7 43 43 VRB 3 6 30.07 1018 10 16 0.00 0.00
4:53 pm 16:53 Mostly Sunny 50 10 29 -1.7 44 44 Calm 30.06 1018 10 16 0.00 0.00
5:53 pm 17:53 Sunny 50 10 28 -2.2 43 43 Calm 30.06 1018 10 16 0.00 0.00
6:53 pm 18:53 Clear 46 7.8 26 -3.3 46 46 WNW 5 7 30.06 1018 10 16 0.00 0.00
7:53 pm 19:53 Clear 42 5.6 25 -3.9 51 51 WSW 6 9 30.07 1018 10 16 0.00 0.00
8:53 pm 20:53 Mostly Clear 39 3.9 24 -4.4 55 55 SSW 7 11 30.07 1018 8 13 0.00 0.00
9:53 pm 21:53 Clear 37 2.8 23 -5 57 57 SSE 6 9 30.08 1019 10 16 0.00 0.00
10:53 pm 22:53 Partly Cloudy 36 2.2 25 -3.9 64 64 S 6 9 30.06 1018 10 16 0.00 0.00
11:53 pm 23:53 Mostly Cloudy 37 2.8 25 -3.9 62 62 SSW 5 7 30.04 1017 10 16 0.00 0.00

Powered by AerisWeather